Location: Almena City Lake
(39.8850°N, 99.6804°W)
Time: 08:28:03
(UTC+00:00)

GEOS 3 Rocket - Pass Details

Date: 18 February 2020
Orbit: 778 x 842 km, 115.0° (Epoch: 31 March)

Event Time Altitude Azimuth Distance (km) Brightness Sun altitude
Rises 10:34:39 0° 40° (NE) 3,375 7.5 -33.8°
Reaches altitude 10° 10:37:02 10° 45° (NE) 2,445 6.7 -33.3°
Enters shadow 10:41:56 50° 110° (ESE) 1,060 4.4 -32.4°
